CCA1028 ZGGG-ZHHH

Flight info

Callsign CCA1028
Flight time 1h 22m
Altitude 26600
Route MIKIP A461 BUBDA W56 UPMAT
Aircraft A320/M-SDE2E3FGHIRWXY/LB1

Departure

Time 2026-05-08 13:44
Airport Guangzhou Baiyun International Airport (ZGGG)

Arrival

Time 2026-05-08 15:06
Airport Wuhan Tianhe International Airport (ZHHH)
Time Latitude Longitude Altitude Speed Heading
2026-05-08 13:13 23.40053 113.30514 54 ft 0 kts 313°
2026-05-08 13:29 23.40051 113.30517 53 ft 2 kts 313°
2026-05-08 13:29 23.40040 113.30530 52 ft 2 kts 313°
2026-05-08 13:29 23.40029 113.30543 53 ft 2 kts 313°
2026-05-08 13:30 23.40018 113.30556 52 ft 2 kts 313°
2026-05-08 13:30 23.40006 113.30569 53 ft 2 kts 313°
2026-05-08 13:30 23.39995 113.30582 50 ft 2 kts 305°
2026-05-08 13:30 23.39986 113.30596 52 ft 2 kts 305°
2026-05-08 13:31 23.39978 113.30612 54 ft 2 kts 281°
2026-05-08 13:31 23.39975 113.30629 52 ft 2 kts 281°
2026-05-08 13:31 23.39975 113.30630 52 ft 0 kts 281°
2026-05-08 13:32 23.39975 113.30626 52 ft 2 kts 281°
2026-05-08 13:32 23.39980 113.30582 51 ft 14 kts 269°
2026-05-08 13:33 23.39902 113.30555 54 ft 13 kts 144°
2026-05-08 13:33 23.39875 113.30640 54 ft 11 kts 102°
2026-05-08 13:33 23.39856 113.30717 51 ft 10 kts 119°
2026-05-08 13:33 23.39801 113.30737 54 ft 8 kts 187°
2026-05-08 13:34 23.39753 113.30746 54 ft 7 kts 135°
2026-05-08 13:34 23.39739 113.30789 51 ft 6 kts 99°
2026-05-08 13:34 23.39733 113.30832 54 ft 9 kts 100°
2026-05-08 13:34 23.39683 113.30903 54 ft 12 kts 169°
2026-05-08 13:35 23.39608 113.30883 51 ft 10 kts 195°
2026-05-08 13:35 23.39543 113.30864 54 ft 9 kts 195°
2026-05-08 13:35 23.39483 113.30848 54 ft 10 kts 192°
2026-05-08 13:35 23.39386 113.30825 54 ft 17 kts 193°
2026-05-08 13:36 23.39276 113.30797 54 ft 16 kts 193°
2026-05-08 13:36 23.39169 113.30765 54 ft 16 kts 193°
2026-05-08 13:36 23.39064 113.30738 55 ft 15 kts 193°
2026-05-08 13:36 23.38965 113.30712 54 ft 15 kts 194°
2026-05-08 13:37 23.38868 113.30686 52 ft 14 kts 194°
2026-05-08 13:37 23.38779 113.30661 55 ft 13 kts 194°
2026-05-08 13:37 23.38698 113.30638 54 ft 12 kts 194°
2026-05-08 13:37 23.38599 113.30611 54 ft 16 kts 194°
2026-05-08 13:38 23.38492 113.30582 54 ft 16 kts 195°
2026-05-08 13:38 23.38393 113.30556 54 ft 13 kts 195°
2026-05-08 13:38 23.38305 113.30530 53 ft 14 kts 193°
2026-05-08 13:38 23.38202 113.30503 53 ft 18 kts 194°
2026-05-08 13:39 23.38080 113.30470 51 ft 19 kts 194°
2026-05-08 13:39 23.37948 113.30436 54 ft 20 kts 192°
2026-05-08 13:39 23.37804 113.30398 54 ft 22 kts 194°
2026-05-08 13:39 23.37665 113.30359 52 ft 15 kts 194°
2026-05-08 13:40 23.37611 113.30374 43 ft 7 kts 129°
2026-05-08 13:40 23.37603 113.30415 55 ft 5 kts 101°
2026-05-08 13:40 23.37596 113.30451 47 ft 6 kts 101°
2026-05-08 13:40 23.37586 113.30504 56 ft 8 kts 101°
2026-05-08 13:41 23.37572 113.30580 56 ft 13 kts 103°
2026-05-08 13:41 23.37546 113.30674 55 ft 12 kts 107°
2026-05-08 13:41 23.37496 113.30713 49 ft 9 kts 181°
2026-05-08 13:41 23.37443 113.30701 54 ft 8 kts 192°
2026-05-08 13:42 23.37342 113.30675 54 ft 22 kts 194°
2026-05-08 13:42 23.37183 113.30631 54 ft 25 kts 194°
2026-05-08 13:42 23.37060 113.30598 52 ft 11 kts 194°
2026-05-08 13:42 23.37010 113.30600 54 ft 7 kts 149°
2026-05-08 13:43 23.36995 113.30641 54 ft 5 kts 103°
2026-05-08 13:43 23.36986 113.30678 53 ft 8 kts 103°
2026-05-08 13:43 23.36974 113.30777 55 ft 7 kts 43°
2026-05-08 13:43 23.37025 113.30791 54 ft 10 kts 13°
2026-05-08 13:44 23.37298 113.30862 51 ft 78 kts 14°
2026-05-08 13:44 23.38036 113.31062 52 ft 138 kts 14°
2026-05-08 13:44 23.39107 113.31356 238 ft 169 kts 12°
2026-05-08 13:44 23.40232 113.31637 969 ft 165 kts 12°
2026-05-08 13:45 23.41320 113.31924 1691 ft 161 kts 16°
2026-05-08 13:45 23.42418 113.32234 2272 ft 169 kts 17°
2026-05-08 13:45 23.43616 113.32565 2665 ft 186 kts 17°
2026-05-08 13:45 23.44953 113.32924 2974 ft 213 kts 15°
2026-05-08 13:46 23.46464 113.33319 3491 ft 232 kts 15°
2026-05-08 13:46 23.48053 113.33732 4331 ft 238 kts 15°
2026-05-08 13:46 23.49689 113.34156 5142 ft 245 kts 13°
2026-05-08 13:46 23.51375 113.34571 5940 ft 251 kts 13°
2026-05-08 13:47 23.53096 113.34993 6752 ft 257 kts 12°
2026-05-08 13:47 23.54854 113.35430 7536 ft 261 kts 12°
2026-05-08 13:47 23.56650 113.35841 8369 ft 265 kts
2026-05-08 13:47 23.58504 113.35999 9211 ft 269 kts
2026-05-08 13:48 23.60359 113.36146 10027 ft 273 kts
2026-05-08 13:48 23.62265 113.36301 10762 ft 276 kts
2026-05-08 13:48 23.64196 113.36459 11479 ft 280 kts
2026-05-08 13:48 23.66153 113.36619 12204 ft 284 kts
2026-05-08 13:49 23.68136 113.36783 12930 ft 288 kts
2026-05-08 13:49 23.70146 113.36952 13641 ft 291 kts
2026-05-08 13:49 23.72185 113.37123 14287 ft 295 kts
2026-05-08 13:49 23.74244 113.37297 14925 ft 298 kts
2026-05-08 13:50 23.76326 113.37472 15557 ft 301 kts
2026-05-08 13:50 23.78428 113.37647 16181 ft 305 kts
2026-05-08 13:50 23.80605 113.37836 16405 ft 325 kts
2026-05-08 13:50 23.82937 113.38048 16531 ft 346 kts
2026-05-08 13:51 23.85400 113.38277 16655 ft 365 kts
2026-05-08 13:51 23.87967 113.38519 16790 ft 383 kts
2026-05-08 13:51 23.90685 113.38779 16929 ft 399 kts
2026-05-08 13:51 23.93487 113.39051 17290 ft 407 kts
2026-05-08 13:52 23.96320 113.39329 17788 ft 411 kts
2026-05-08 13:52 23.99188 113.39611 18289 ft 415 kts
2026-05-08 13:52 24.02074 113.39894 18735 ft 417 kts
2026-05-08 13:52 24.04974 113.40175 19206 ft 419 kts
2026-05-08 13:53 24.07885 113.40453 19690 ft 420 kts
2026-05-08 13:53 24.10815 113.40728 20172 ft 422 kts
2026-05-08 13:53 24.13744 113.41003 20636 ft 424 kts
2026-05-08 13:53 24.16691 113.41279 21091 ft 425 kts
2026-05-08 13:54 24.19617 113.41547 21544 ft 426 kts
2026-05-08 13:54 24.22581 113.41738 21984 ft 427 kts 358°
2026-05-08 13:54 24.25557 113.41848 22434 ft 428 kts 357°
2026-05-08 13:54 24.28539 113.41912 22876 ft 430 kts 356°
2026-05-08 13:55 24.31533 113.41963 23304 ft 431 kts 356°
2026-05-08 13:55 24.33528 113.42000 23586 ft 433 kts 356°
2026-05-08 13:55 24.40597 113.42173 24366 ft 437 kts 356°
2026-05-08 13:56 24.43652 113.42259 24679 ft 439 kts 356°
2026-05-08 13:56 24.46713 113.42355 24985 ft 442 kts 356°
2026-05-08 13:56 24.48754 113.42424 25187 ft 443 kts 356°
2026-05-08 13:56 24.51838 113.42529 25503 ft 446 kts 356°
2026-05-08 13:57 24.55969 113.42673 25930 ft 449 kts 356°
2026-05-08 13:57 24.59098 113.42779 26235 ft 451 kts 356°
2026-05-08 13:57 24.62087 113.42879 26537 ft 452 kts 356°
2026-05-08 13:57 24.64313 113.42951 26639 ft 452 kts 356°
2026-05-08 13:58 24.67439 113.43049 26688 ft 457 kts 356°
2026-05-08 13:58 24.70636 113.43143 26687 ft 459 kts 356°
2026-05-08 13:58 24.73838 113.43233 26690 ft 460 kts 355°
2026-05-08 13:58 24.77042 113.43319 26694 ft 460 kts 355°
2026-05-08 13:59 24.80244 113.43402 26694 ft 461 kts 355°
2026-05-08 13:59 24.83453 113.43486 26693 ft 460 kts 355°
2026-05-08 13:59 24.86644 113.43572 26696 ft 460 kts 355°
2026-05-08 13:59 24.89863 113.43658 26698 ft 460 kts 355°
2026-05-08 14:00 24.93026 113.43741 26698 ft 460 kts 355°
2026-05-08 14:00 24.96225 113.43827 26697 ft 460 kts 355°
2026-05-08 14:00 24.99431 113.43916 26702 ft 460 kts 355°
2026-05-08 14:00 25.02631 113.44005 26704 ft 460 kts 355°
2026-05-08 14:01 25.05836 113.44095 26704 ft 460 kts 355°
2026-05-08 14:01 25.09032 113.44185 26709 ft 460 kts 355°
2026-05-08 14:01 25.12236 113.44273 26710 ft 460 kts 355°
2026-05-08 14:01 25.15436 113.44358 26718 ft 460 kts 355°
2026-05-08 14:02 25.18630 113.44441 26718 ft 460 kts 355°
2026-05-08 14:02 25.21830 113.44526 26719 ft 459 kts 355°
2026-05-08 14:02 25.25024 113.44614 26714 ft 458 kts 355°
2026-05-08 14:02 25.28205 113.44701 26709 ft 457 kts 355°
2026-05-08 14:03 25.31342 113.44790 26714 ft 458 kts 355°
2026-05-08 14:03 25.34576 113.44878 26722 ft 460 kts 355°
2026-05-08 14:03 25.37736 113.44963 26733 ft 460 kts 355°
2026-05-08 14:03 25.40937 113.45049 26742 ft 460 kts 355°
2026-05-08 14:04 25.44143 113.45135 26749 ft 460 kts 355°
2026-05-08 14:04 25.47342 113.45224 26751 ft 459 kts 355°
2026-05-08 14:04 25.50538 113.45315 26744 ft 459 kts 355°
2026-05-08 14:04 25.53736 113.45409 26746 ft 459 kts 355°
2026-05-08 14:05 25.56934 113.45502 26746 ft 459 kts 355°
2026-05-08 14:05 25.60130 113.45596 26747 ft 459 kts 355°
2026-05-08 14:05 25.63325 113.45689 26751 ft 459 kts 355°
2026-05-08 14:05 25.66517 113.45781 26750 ft 459 kts 355°
2026-05-08 14:06 25.69713 113.45872 26744 ft 459 kts 354°
2026-05-08 14:06 25.72909 113.45962 26744 ft 459 kts 354°
2026-05-08 14:06 25.76113 113.46051 26740 ft 459 kts 354°
2026-05-08 14:06 25.79321 113.46141 26743 ft 459 kts 354°
2026-05-08 14:07 25.82508 113.46234 26741 ft 459 kts 354°
2026-05-08 14:07 25.85666 113.46331 26744 ft 459 kts 354°
2026-05-08 14:07 25.88861 113.46386 26743 ft 458 kts 353°
2026-05-08 14:07 25.92041 113.46332 26746 ft 457 kts 351°
2026-05-08 14:08 25.95218 113.46198 26747 ft 456 kts 350°
2026-05-08 14:08 25.98386 113.46022 26750 ft 455 kts 350°
2026-05-08 14:08 26.01546 113.45838 26754 ft 455 kts 350°
2026-05-08 14:08 26.04713 113.45671 26749 ft 455 kts 350°
2026-05-08 14:09 26.07881 113.45526 26753 ft 456 kts 351°
2026-05-08 14:09 26.11051 113.45401 26755 ft 456 kts 351°
2026-05-08 14:09 26.14222 113.45291 26752 ft 456 kts 351°
2026-05-08 14:09 26.17390 113.45185 26752 ft 456 kts 351°
2026-05-08 14:10 26.20563 113.45078 26751 ft 456 kts 351°
2026-05-08 14:10 26.23730 113.44964 26745 ft 455 kts 351°
2026-05-08 14:10 26.26896 113.44839 26740 ft 455 kts 351°
2026-05-08 14:10 26.30072 113.44711 26742 ft 455 kts 351°
2026-05-08 14:11 26.33235 113.44584 26743 ft 455 kts 351°
2026-05-08 14:11 26.36410 113.44459 26744 ft 456 kts 351°
2026-05-08 14:11 26.39574 113.44335 26746 ft 456 kts 351°
2026-05-08 14:11 26.42709 113.44216 26747 ft 456 kts 351°
2026-05-08 14:12 26.45883 113.44098 26746 ft 456 kts 351°
2026-05-08 14:12 26.49048 113.43980 26748 ft 456 kts 351°
2026-05-08 14:12 26.52225 113.43859 26745 ft 456 kts 351°
2026-05-08 14:12 26.55407 113.43734 26751 ft 457 kts 351°
2026-05-08 14:13 26.58588 113.43609 26755 ft 457 kts 351°
2026-05-08 14:13 26.61769 113.43489 26755 ft 457 kts 351°
2026-05-08 14:13 26.64956 113.43367 26757 ft 457 kts 351°
2026-05-08 14:13 26.68132 113.43244 26762 ft 457 kts 351°
2026-05-08 14:14 26.71319 113.43123 26764 ft 458 kts 351°
2026-05-08 14:14 26.74502 113.43001 26760 ft 457 kts 350°
2026-05-08 14:14 26.77690 113.42880 26754 ft 456 kts 350°
2026-05-08 14:14 26.80859 113.42760 26750 ft 456 kts 350°
2026-05-08 14:15 26.84038 113.42637 26752 ft 458 kts 350°
2026-05-08 14:15 26.87178 113.42517 26758 ft 458 kts 350°
2026-05-08 14:15 26.90367 113.42395 26762 ft 458 kts 350°
2026-05-08 14:15 26.93557 113.42273 26764 ft 458 kts 350°
2026-05-08 14:16 26.96743 113.42150 26764 ft 458 kts 350°
2026-05-08 14:16 26.99926 113.42024 26765 ft 458 kts 350°
2026-05-08 14:16 27.03117 113.41896 26772 ft 458 kts 350°
2026-05-08 14:16 27.06299 113.41771 26768 ft 458 kts 350°
2026-05-08 14:17 27.09485 113.41647 26769 ft 458 kts 350°
2026-05-08 14:17 27.12675 113.41525 26768 ft 458 kts 350°
2026-05-08 14:17 27.15858 113.41404 26773 ft 458 kts 350°
2026-05-08 14:17 27.19053 113.41285 26771 ft 458 kts 350°
2026-05-08 14:18 27.22244 113.41167 26774 ft 458 kts 350°
2026-05-08 14:18 27.25433 113.41048 26770 ft 458 kts 350°
2026-05-08 14:18 27.28618 113.40925 26758 ft 458 kts 350°
2026-05-08 14:18 27.31803 113.40798 26758 ft 458 kts 350°
2026-05-08 14:19 27.34952 113.40707 26760 ft 459 kts 351°
2026-05-08 14:19 27.38158 113.40710 26761 ft 461 kts 353°
2026-05-08 14:19 27.41370 113.40784 26762 ft 462 kts 354°
2026-05-08 14:19 27.44591 113.40893 26761 ft 463 kts 354°
2026-05-08 14:20 27.47811 113.41010 26768 ft 463 kts 354°
2026-05-08 14:20 27.51033 113.41116 26769 ft 463 kts 354°
2026-05-08 14:20 27.54253 113.41202 26768 ft 463 kts 353°
2026-05-08 14:20 27.57473 113.41269 26767 ft 462 kts 353°
2026-05-08 14:21 27.60689 113.41323 26766 ft 462 kts 353°
2026-05-08 14:21 27.63916 113.41373 26770 ft 462 kts 353°
2026-05-08 14:21 27.67139 113.41457 26766 ft 464 kts 354°
2026-05-08 14:21 27.70326 113.41654 26763 ft 465 kts 356°
2026-05-08 14:22 27.73563 113.41949 26762 ft 467 kts 357°
2026-05-08 14:22 27.76801 113.42293 26759 ft 467 kts 358°
2026-05-08 14:22 27.80036 113.42649 26760 ft 468 kts 358°
2026-05-08 14:22 27.83283 113.42990 26760 ft 467 kts 357°
2026-05-08 14:23 27.86516 113.43302 26762 ft 467 kts 357°
2026-05-08 14:23 27.89763 113.43592 26763 ft 467 kts 356°
2026-05-08 14:23 27.93004 113.43868 26767 ft 467 kts 356°
2026-05-08 14:23 27.96255 113.44138 26772 ft 467 kts 356°
2026-05-08 14:24 27.99498 113.44409 26776 ft 468 kts 356°
2026-05-08 14:24 28.02741 113.44685 26778 ft 468 kts 356°
2026-05-08 14:24 28.05996 113.44966 26782 ft 468 kts 356°
2026-05-08 14:24 28.09246 113.45251 26786 ft 468 kts 356°
2026-05-08 14:25 28.12499 113.45521 26792 ft 468 kts 356°
2026-05-08 14:25 28.15746 113.45763 26794 ft 468 kts 356°
2026-05-08 14:25 28.18996 113.45988 26799 ft 468 kts 355°
2026-05-08 14:25 28.22242 113.46204 26797 ft 468 kts 355°
2026-05-08 14:26 28.25493 113.46420 26799 ft 468 kts 355°
2026-05-08 14:26 28.28742 113.46644 26799 ft 467 kts 356°
2026-05-08 14:26 28.31992 113.46875 26798 ft 467 kts 356°
2026-05-08 14:26 28.35236 113.47110 26794 ft 467 kts 356°
2026-05-08 14:27 28.38475 113.47347 26793 ft 467 kts 356°
2026-05-08 14:27 28.41721 113.47586 26791 ft 467 kts 356°
2026-05-08 14:27 28.44962 113.47822 26788 ft 466 kts 356°
2026-05-08 14:27 28.48208 113.48055 26785 ft 466 kts 356°
2026-05-08 14:28 28.51442 113.48283 26783 ft 466 kts 356°
2026-05-08 14:28 28.54678 113.48510 26785 ft 466 kts 356°
2026-05-08 14:28 28.57917 113.48739 26781 ft 466 kts 356°
2026-05-08 14:28 28.61103 113.48966 26779 ft 466 kts 356°
2026-05-08 14:29 28.64340 113.49198 26774 ft 466 kts 356°
2026-05-08 14:29 28.67576 113.49430 26771 ft 465 kts 356°
2026-05-08 14:29 28.70811 113.49663 26773 ft 465 kts 356°
2026-05-08 14:29 28.74046 113.49894 26769 ft 466 kts 356°
2026-05-08 14:30 28.77283 113.50126 26770 ft 466 kts 356°
2026-05-08 14:30 28.80518 113.50358 26772 ft 466 kts 356°
2026-05-08 14:30 28.83762 113.50590 26774 ft 466 kts 356°
2026-05-08 14:30 28.86964 113.50817 26776 ft 466 kts 356°
2026-05-08 14:31 28.90199 113.51050 26776 ft 466 kts 356°
2026-05-08 14:31 28.93451 113.51287 26772 ft 466 kts 356°
2026-05-08 14:31 28.96681 113.51523 26773 ft 466 kts 356°
2026-05-08 14:32 29.03161 113.51993 26774 ft 466 kts 356°
2026-05-08 14:32 29.06396 113.52225 26771 ft 466 kts 356°
2026-05-08 14:32 29.09632 113.52458 26770 ft 466 kts 356°
2026-05-08 14:32 29.12871 113.52693 26778 ft 466 kts 356°
2026-05-08 14:33 29.16118 113.52927 26775 ft 466 kts 356°
2026-05-08 14:33 29.19356 113.53159 26772 ft 467 kts 356°
2026-05-08 14:33 29.22595 113.53392 26770 ft 466 kts 356°
2026-05-08 14:33 29.25833 113.53626 26771 ft 467 kts 356°
2026-05-08 14:34 29.29079 113.53862 26772 ft 466 kts 356°
2026-05-08 14:34 29.32320 113.54114 26773 ft 467 kts 356°
2026-05-08 14:34 29.35527 113.54385 26762 ft 468 kts 357°
2026-05-08 14:34 29.38768 113.54676 26773 ft 468 kts 357°
2026-05-08 14:35 29.42014 113.54972 26767 ft 468 kts 357°
2026-05-08 14:35 29.45272 113.55268 26764 ft 468 kts 357°
2026-05-08 14:35 29.48522 113.55557 26772 ft 468 kts 357°
2026-05-08 14:35 29.51773 113.55841 26774 ft 468 kts 357°
2026-05-08 14:36 29.55015 113.56120 26774 ft 469 kts 357°
2026-05-08 14:36 29.58278 113.56402 26773 ft 469 kts 357°
2026-05-08 14:36 29.61534 113.56686 26775 ft 469 kts 357°
2026-05-08 14:36 29.64790 113.56971 26776 ft 469 kts 357°
2026-05-08 14:37 29.68043 113.57253 26777 ft 469 kts 357°
2026-05-08 14:37 29.71297 113.57536 26779 ft 469 kts 357°
2026-05-08 14:37 29.74553 113.57819 26715 ft 470 kts 357°
2026-05-08 14:37 29.77816 113.58101 26481 ft 470 kts 358°
2026-05-08 14:38 29.81075 113.58385 26246 ft 470 kts 358°
2026-05-08 14:38 29.84342 113.58670 26010 ft 471 kts 358°
2026-05-08 14:38 29.87584 113.58958 25250 ft 467 kts 358°
2026-05-08 14:38 29.90839 113.59245 24179 ft 471 kts 358°
2026-05-08 14:39 29.94091 113.59803 23379 ft 474 kts
2026-05-08 14:39 29.97245 113.60938 22611 ft 476 kts 16°
2026-05-08 14:39 30.00276 113.62443 21900 ft 471 kts 18°
2026-05-08 14:39 30.03224 113.63921 21239 ft 465 kts 18°
2026-05-08 14:40 30.06142 113.65493 20586 ft 462 kts 24°
2026-05-08 14:40 30.08836 113.67509 19964 ft 462 kts 33°
2026-05-08 14:40 30.11278 113.69899 19353 ft 458 kts 37°
2026-05-08 14:40 30.13673 113.72319 18764 ft 452 kts 37°
2026-05-08 14:41 30.15229 113.73893 18371 ft 448 kts 37°
2026-05-08 14:41 30.17560 113.76249 17699 ft 442 kts 37°
2026-05-08 14:41 30.20641 113.79363 16850 ft 435 kts 38°
2026-05-08 14:41 30.22141 113.80880 16447 ft 431 kts 38°
2026-05-08 14:42 30.25116 113.83887 15647 ft 424 kts 38°
2026-05-08 14:42 30.27323 113.86118 15065 ft 419 kts 38°
2026-05-08 14:42 30.28802 113.87613 14669 ft 416 kts 38°
2026-05-08 14:42 30.31666 113.90507 13919 ft 409 kts 39°
2026-05-08 14:43 30.33106 113.91963 13496 ft 406 kts 39°
2026-05-08 14:43 30.35214 113.94096 12868 ft 401 kts 39°
2026-05-08 14:43 30.37298 113.96213 12258 ft 395 kts 40°
2026-05-08 14:43 30.39353 113.98303 11656 ft 390 kts 40°
2026-05-08 14:44 30.41359 114.00341 11140 ft 386 kts 41°
2026-05-08 14:44 30.43402 114.02415 10956 ft 385 kts 41°
2026-05-08 14:44 30.45391 114.04433 10737 ft 379 kts 41°
2026-05-08 14:44 30.47321 114.06392 10500 ft 364 kts 41°
2026-05-08 14:45 30.49193 114.08300 10260 ft 350 kts 41°
2026-05-08 14:45 30.51061 114.10038 10073 ft 337 kts 36°
2026-05-08 14:45 30.53005 114.11436 9938 ft 323 kts 29°
2026-05-08 14:45 30.54989 114.12528 9810 ft 310 kts 22°
2026-05-08 14:46 30.57002 114.13330 9679 ft 299 kts 16°
2026-05-08 14:46 30.58994 114.13847 9549 ft 288 kts 10°
2026-05-08 14:46 30.60956 114.14116 9419 ft 278 kts
2026-05-08 14:46 30.62844 114.14163 9292 ft 268 kts 359°
2026-05-08 14:47 30.64682 114.14034 9163 ft 263 kts 356°
2026-05-08 14:47 30.66499 114.13888 9037 ft 261 kts 356°
2026-05-08 14:47 30.68309 114.13744 8908 ft 260 kts 356°
2026-05-08 14:47 30.70112 114.13598 8783 ft 259 kts 356°
2026-05-08 14:48 30.71913 114.13452 8655 ft 259 kts 356°
2026-05-08 14:48 30.73703 114.13307 8521 ft 258 kts 356°
2026-05-08 14:48 30.75498 114.13160 8403 ft 258 kts 356°
2026-05-08 14:48 30.77281 114.13014 8282 ft 257 kts 356°
2026-05-08 14:49 30.79064 114.12881 8152 ft 256 kts 359°
2026-05-08 14:49 30.80841 114.12948 8034 ft 256 kts
2026-05-08 14:49 30.82604 114.13269 7912 ft 255 kts 13°
2026-05-08 14:49 30.84287 114.13825 7786 ft 255 kts 20°
2026-05-08 14:50 30.85921 114.14623 7672 ft 254 kts 26°
2026-05-08 14:50 30.87457 114.15640 7545 ft 254 kts 33°
2026-05-08 14:50 30.88875 114.16857 7422 ft 253 kts 40°
2026-05-08 14:50 30.90198 114.18204 7304 ft 253 kts 41°
2026-05-08 14:51 30.91520 114.19556 7181 ft 250 kts 41°
2026-05-08 14:51 30.92814 114.20882 7060 ft 247 kts 41°
2026-05-08 14:51 30.94104 114.22203 6941 ft 246 kts 41°
2026-05-08 14:51 30.95392 114.23518 6822 ft 246 kts 41°
2026-05-08 14:52 30.96677 114.24829 6702 ft 245 kts 41°
2026-05-08 14:52 30.99196 114.27415 6454 ft 234 kts 41°
2026-05-08 14:52 31.00401 114.28652 6336 ft 226 kts 41°
2026-05-08 14:53 31.01564 114.29846 6201 ft 219 kts 41°
2026-05-08 14:53 31.02691 114.31002 6075 ft 212 kts 41°
2026-05-08 14:53 31.03787 114.32126 5948 ft 207 kts 41°
2026-05-08 14:53 31.04835 114.33202 5826 ft 203 kts 41°
2026-05-08 14:54 31.05900 114.34298 5689 ft 202 kts 41°
2026-05-08 14:54 31.06958 114.35385 5568 ft 201 kts 41°
2026-05-08 14:54 31.08007 114.36465 5443 ft 201 kts 41°
2026-05-08 14:54 31.09067 114.37555 5318 ft 200 kts 41°
2026-05-08 14:55 31.10098 114.38615 5200 ft 200 kts 41°
2026-05-08 14:55 31.11142 114.39688 5115 ft 200 kts 42°
2026-05-08 14:55 31.12185 114.40760 5057 ft 199 kts 41°
2026-05-08 14:55 31.13196 114.41864 5052 ft 199 kts 52°
2026-05-08 14:56 31.13830 114.43281 5060 ft 198 kts 76°
2026-05-08 14:56 31.13925 114.44875 5065 ft 198 kts 99°
2026-05-08 14:56 31.13465 114.46377 5055 ft 197 kts 123°
2026-05-08 14:56 31.12591 114.47604 5057 ft 197 kts 132°
2026-05-08 14:57 31.11674 114.48795 4998 ft 196 kts 132°
2026-05-08 14:57 31.10767 114.49984 4786 ft 196 kts 132°
2026-05-08 14:57 31.09862 114.51170 4583 ft 195 kts 132°
2026-05-08 14:57 31.08815 114.52149 4361 ft 194 kts 155°
2026-05-08 14:58 31.07511 114.52505 4171 ft 193 kts 181°
2026-05-08 14:58 31.06236 114.52112 3968 ft 192 kts 212°
2026-05-08 14:58 31.05148 114.51203 3752 ft 193 kts 218°
2026-05-08 14:58 31.04124 114.50208 3558 ft 193 kts 220°
2026-05-08 14:59 31.03113 114.49179 3368 ft 192 kts 221°
2026-05-08 14:59 31.01113 114.47120 2991 ft 191 kts 221°
2026-05-08 14:59 31.00115 114.46092 2907 ft 191 kts 221°
2026-05-08 15:00 30.99119 114.45065 2907 ft 191 kts 221°
2026-05-08 15:00 30.98125 114.44041 2906 ft 191 kts 221°
2026-05-08 15:00 30.97130 114.43016 2906 ft 191 kts 221°
2026-05-08 15:00 30.96133 114.41990 2906 ft 191 kts 221°
2026-05-08 15:01 30.95137 114.40964 2907 ft 191 kts 221°
2026-05-08 15:01 30.94143 114.39942 2906 ft 191 kts 221°
2026-05-08 15:01 30.93148 114.38918 2909 ft 191 kts 221°
2026-05-08 15:01 30.92163 114.37905 2905 ft 191 kts 221°
2026-05-08 15:02 30.91155 114.36869 2908 ft 191 kts 221°
2026-05-08 15:02 30.90172 114.35859 2910 ft 191 kts 221°
2026-05-08 15:02 30.89175 114.34834 2860 ft 192 kts 221°
2026-05-08 15:02 30.88176 114.33808 2680 ft 191 kts 221°
2026-05-08 15:03 30.87197 114.32802 2462 ft 185 kts 221°
2026-05-08 15:03 30.86253 114.31833 2215 ft 173 kts 221°
2026-05-08 15:03 30.85394 114.30951 2002 ft 155 kts 221°
2026-05-08 15:03 30.84619 114.30156 1782 ft 142 kts 221°
2026-05-08 15:04 30.83894 114.29412 1610 ft 136 kts 221°
2026-05-08 15:04 30.83191 114.28691 1424 ft 134 kts 222°
2026-05-08 15:04 30.82496 114.27978 1251 ft 132 kts 222°
2026-05-08 15:04 30.81811 114.27275 1073 ft 131 kts 222°
2026-05-08 15:05 30.81129 114.26576 899 ft 131 kts 222°
2026-05-08 15:05 30.80438 114.25878 738 ft 131 kts 222°
2026-05-08 15:05 30.79744 114.25178 566 ft 133 kts 221°
2026-05-08 15:05 30.79050 114.24464 394 ft 134 kts 223°
2026-05-08 15:06 30.78349 114.23747 222 ft 134 kts 222°
2026-05-08 15:06 30.77662 114.23045 146 ft 122 kts 223°
2026-05-08 15:06 30.77113 114.22472 134 ft 92 kts 221°
2026-05-08 15:06 30.76790 114.22112 136 ft 37 kts 240°
2026-05-08 15:07 30.76741 114.21916 134 ft 18 kts 300°
2026-05-08 15:07 30.76807 114.21900 132 ft 8 kts 20°
2026-05-08 15:07 30.76853 114.21938 132 ft 12 kts 40°
2026-05-08 15:07 30.76956 114.22042 132 ft 22 kts 41°
2026-05-08 15:08 30.77061 114.22051 131 ft 15 kts 348°
2026-05-08 15:08 30.77128 114.22081 131 ft 16 kts 37°
2026-05-08 15:08 30.77265 114.22125 129 ft 17 kts 326°
2026-05-08 15:08 30.77331 114.22048 127 ft 14 kts 312°
2026-05-08 15:09 30.77308 114.21942 130 ft 16 kts 220°
2026-05-08 15:09 30.77295 114.21930 127 ft 0 kts 220°